Wind_Speed
23 23 21 18 15 18 21 24 24 21 18 17 17 16 16 12 12 12 12 11 10 11 14 16 16 14 13 12 10 9 9 9 8 7 8 8 8 9 9 9 8 8 10
22 21 22 18 16 19 21 23 24 23 19 19 17 17 16 15 12 13 13 13 12 12 15 16 16 15 14 13 12 9 10 10 9 9 8 7 8 9 9 8 8 10 11
22 22 21 19 19 21 22 23 26 25 22 19 18 18 17 16 15 14 14 15 13 12 15 14 14 14 12 11 11 10 9 8 8 7 6 6 5 6 6 9 11 11 11
22 23 25 24 21 22 25 25 27 27 24 20 19 19 20 18 17 15 15 16 14 13 13 13 11 10 10 9 8 7 6 6 4 4 3 3 4 5 7 12 14 15 12
21 19 22 26 28 27 26 27 28 29 27 23 20 21 21 19 17 16 15 14 15 13 12 12 9 8 8 8 8 6 6 5 4 5 4 4 6 7 12 11 14 13 12
21 20 18 22 26 32 29 29 29 29 28 25 22 21 22 19 18 18 16 14 13 12 9 9 7 5 5 6 6 7 8 7 5 4 4 6 8 8 10 10 12 10 10
24 25 21 18 23 27 31 29 30 30 30 27 24 22 22 19 19 19 18 17 15 13 11 11 8 8 7 7 6 6 7 6 6 6 7 6 7 6 8 8 8 9 8
30 27 27 25 21 24 30 31 29 32 30 30 27 26 25 21 19 19 20 18 16 14 13 11 9 9 7 5 5 7 7 5 5 5 5 7 6 6 6 7 7 7 5
37 30 30 25 27 25 26 33 31 33 33 32 31 29 28 24 21 20 20 19 17 17 16 13 10 8 7 5 3 2 4 4 4 5 5 6 7 7 6 5 5 5 4
41 35 33 29 31 27 26 30 36 35 35 36 34 32 30 27 25 22 20 19 20 19 18 16 13 9 7 5 4 4 3 4 4 5 6 7 8 8 7 6 5 5 4
47 38 35 33 34 32 28 27 34 38 38 36 36 34 32 29 28 25 22 21 20 21 19 18 14 11 8 6 6 6 6 5 6 5 9 10 10 10 10 9 8 7 7
44 40 37 36 37 36 31 26 28 38 39 39 39 37 36 34 31 27 24 23 22 24 22 21 18 14 11 10 9 9 8 8 9 8 10 14 13 13 13 13 11 10 10
52 47 41 41 40 37 33 27 26 29 39 40 41 40 37 35 31 28 27 24 24 25 24 22 20 18 14 13 12 12 12 10 12 11 12 15 17 16 15 15 14 11 9
57 54 47 47 45 41 37 30 25 29 34 41 41 41 38 35 32 32 29 26 25 25 25 23 22 20 16 13 13 14 14 13 15 13 13 16 19 18 16 15 12 11 9
60 57 52 53 49 44 39 34 27 29 31 38 40 39 38 37 35 34 32 29 27 26 27 26 24 20 16 14 14 15 14 14 15 15 13 15 18 18 16 14 12 10 8
62 59 59 58 52 48 41 37 30 26 29 32 37 38 39 39 38 36 34 31 29 28 28 27 25 22 18 17 15 14 13 12 15 14 13 13 15 17 16 13 12 9 8
58 64 55 58 54 48 41 37 31 27 28 29 34 36 38 39 39 38 37 35 32 32 29 29 27 24 21 19 17 15 14 12 15 15 12 14 15 15 13 13 12 10 8
64 63 58 59 53 49 46 40 37 32 26 27 31 35 38 37 38 39 38 38 37 35 32 31 30 27 24 22 19 18 18 15 16 15 14 15 15 16 14 14 12 11 9
54 56 57 60 56 54 49 43 39 34 30 27 26 30 33 36 36 35 36 38 40 37 34 32 31 28 26 24 22 20 19 17 16 17 15 15 16 16 14 13 14 13 11
51 56 59 61 59 57 52 46 41 39 33 26 21 22 29 33 33 32 31 31 34 36 36 34 31 31 29 27 23 21 20 18 18 19 17 16 16 16 15 14 14 13 16
54 51 60 62 61 58 55 51 46 41 32 28 28 27 25 29 32 34 34 33 32 33 34 33 32 32 30 27 24 21 20 20 22 22 20 16 16 17 17 18 18 19 20
47 50 54 64 64 62 60 55 50 40 42 37 32 29 24 25 32 34 33 33 32 32 32 32 33 32 29 26 24 22 22 23 23 23 21 21 22 21 23 23 21 20 20
49 48 51 54 62 64 63 58 53 51 46 41 37 35 31 29 28 35 33 33 33 33 33 33 33 30 28 27 25 23 23 26 24 23 25 25 26 26 26 25 24 26 27
52 49 51 54 57 61 64 62 61 55 50 45 44 40 37 31 27 34 34 35 35 36 36 36 34 31 30 29 26 25 26 28 29 29 29 30 28 26 27 28 30 33 32
48 47 49 53 55 58 59 64 60 56 53 49 49 47 49 36 26 33 35 36 37 37 37 37 36 33 31 29 28 28 27 27 28 31 32 31 30 32 32 33 34 35 39
42 44 48 50 54 58 57 55 57 58 61 57 55 54 49 38 29 30 35 38 35 34 36 36 36 36 36 36 34 31 30 31 32 34 33 33 35 36 38 41 42 40 41
Wind_Direction
211 202 199 201 205 199 195 190 184 175 179 179 171 167 158 152 147 136 134 138 127 114 120 127 123 123 123 119 120 118 121 120 122 129 130 133 130 130 116 103 106 115 104
220 210 204 194 203 201 195 193 192 185 182 183 179 166 163 155 149 141 140 138 132 128 124 124 122 123 123 121 115 121 120 111 108 112 119 131 133 125 113 97 108 111 108
224 216 212 200 202 207 198 196 195 197 195 191 186 176 169 167 157 147 143 141 137 133 124 117 121 123 121 119 120 121 119 112 106 104 115 117 111 113 95 105 109 106 106
232 219 212 206 201 211 205 199 198 199 201 199 192 187 181 176 163 154 152 146 139 129 122 125 130 129 128 128 124 128 120 112 108 114 120 132 125 114 99 120 115 113 103
246 229 218 215 210 209 212 203 202 201 200 201 199 197 191 183 171 167 163 161 153 148 141 133 133 133 132 132 129 124 120 116 119 119 105 92 109 114 120 120 118 113 104
246 240 224 222 220 217 214 210 205 206 202 203 205 204 201 189 183 180 174 171 167 156 152 143 138 135 131 130 124 118 108 112 140 143 119 111 111 123 116 122 119 112 102
232 242 248 243 234 227 220 216 211 210 207 205 201 207 208 197 195 192 184 178 177 166 163 154 142 132 120 113 110 107 114 129 136 143 149 122 124 126 122 121 117 114 107
227 233 244 246 242 231 225 219 215 215 212 210 203 207 210 206 205 200 195 191 181 173 170 167 152 147 143 131 114 101 108 140 141 142 143 153 158 160 144 131 125 117 114
229 229 237 241 245 243 229 220 216 216 215 214 211 209 209 207 208 208 205 200 191 186 184 185 179 173 173 176 182 140 117 139 160 159 149 163 175 180 171 162 153 146 138
235 227 232 236 246 242 236 224 216 216 215 213 211 210 210 207 206 208 207 206 202 201 198 196 193 195 205 211 217 221 185 178 171 174 169 175 176 187 190 194 181 170 158
239 224 229 235 242 241 235 231 223 219 216 216 215 214 215 210 208 208 204 204 205 207 207 206 206 211 220 241 243 239 227 219 195 189 181 185 186 188 199 204 197 191 171
226 226 232 236 237 242 237 236 236 225 222 218 218 218 218 213 210 212 208 208 207 209 211 209 211 220 230 247 257 253 244 227 218 199 195 190 189 189 197 202 201 192 183
223 228 234 236 235 237 241 242 237 233 226 223 222 221 222 219 214 217 214 212 214 214 216 214 217 225 234 251 264 264 256 235 226 213 205 199 196 195 200 204 201 195 192
220 231 232 236 233 235 240 241 235 234 227 225 225 224 224 223 220 222 222 217 220 221 222 221 222 226 237 252 265 264 256 244 230 219 213 208 206 201 201 201 199 203 203
220 228 228 231 229 232 236 238 237 234 234 223 226 227 228 227 225 226 228 225 225 224 226 229 230 231 240 253 263 265 258 246 233 228 220 216 212 209 206 206 203 206 212
218 216 220 224 228 228 232 235 238 235 232 229 225 227 229 229 228 228 229 229 231 231 229 232 235 236 242 250 256 266 267 246 234 234 225 220 213 215 214 211 210 215 234
217 222 226 221 226 227 229 233 236 237 230 227 228 231 232 232 233 232 230 230 232 234 234 233 235 237 244 250 253 264 266 253 245 238 226 218 211 213 211 211 207 216 241
218 222 222 222 223 225 227 228 229 234 229 226 227 228 232 235 236 237 235 234 233 235 235 236 235 236 239 247 253 260 262 252 241 229 225 210 201 205 206 207 213 229 241
220 220 222 221 222 223 226 228 231 232 236 235 229 229 231 234 237 239 237 237 236 236 236 238 236 236 239 243 246 253 255 249 232 223 219 208 205 214 219 222 226 231 253
218 218 219 219 221 224 228 231 231 234 236 240 229 232 232 233 233 234 235 234 234 233 233 234 233 234 238 242 247 250 249 240 228 221 218 213 218 228 238 241 243 252 268
217 219 217 220 222 224 229 232 230 234 234 238 237 233 232 235 234 232 233 235 236 235 232 231 231 234 237 241 244 245 238 227 222 220 223 226 234 241 250 258 269 271 266
217 219 219 220 221 224 230 231 233 232 233 234 235 238 241 241 233 229 232 237 238 240 238 234 234 235 237 237 237 237 231 226 225 224 224 228 234 240 249 261 264 265 276
220 219 221 222 219 221 226 228 227 231 233 235 236 240 239 246 242 229 227 232 234 236 234 232 234 235 236 234 232 232 227 221 213 215 224 229 233 239 248 256 261 268 273
216 220 224 222 221 221 223 226 228 230 233 237 236 243 240 245 247 234 227 228 228 229 228 228 228 228 228 225 223 224 222 221 221 226 230 233 237 243 251 259 265 270 278
213 219 222 226 226 226 225 223 225 228 229 235 237 239 236 237 246 239 228 230 228 226 225 224 224 224 222 224 228 232 234 229 229 232 239 243 247 254 261 266 269 274 276
213 213 217 222 224 226 225 221 224 226 230 235 236 238 249 233 239 244 230 232 228 225 224 224 225 227 224 226 231 236 236 237 239 246 251 253 256 260 264 267 271 276 282
Height
5898 5900 5903 5905 5909 5912 5916 5919 5922 5925 5928 5929 5930 5933 5935 5938 5939 5940 5941 5941 5942 5942 5942 5943 5944 5945 5946 5947 5948 5949 5949 5949 5950 5950 5950 5951 5952 5953 5954 5954 5954 5953 5953
5897 5900 5903 5904 5909 5911 5915 5919 5922 5925 5928 5930 5932 5934 5937 5939 5942 5942 5943 5944 5944 5944 5945 5946 5946 5946 5947 5949 5950 5951 5951 5951 5952 5952 5953 5954 5955 5955 5956 5956 5956 5956 5956
5896 5899 5902 5904 5907 5911 5915 5917 5921 5924 5927 5930 5933 5935 5938 5940 5941 5944 5945 5945 5946 5947 5947 5948 5949 5949 5949 5951 5952 5953 5954 5954 5954 5954 5955 5956 5957 5957 5957 5957 5959 5959 5959
5894 5896 5898 5902 5905 5909 5913 5916 5919 5922 5927 5930 5934 5936 5937 5939 5942 5944 5946 5946 5947 5949 5949 5951 5952 5952 5952 5953 5954 5955 5956 5956 5956 5956 5956 5957 5958 5957 5960 5960 5961 5962 5963
5893 5895 5897 5900 5902 5905 5910 5914 5917 5920 5925 5930 5933 5935 5938 5940 5943 5945 5947 5948 5949 5951 5952 5953 5954 5955 5956 5956 5956 5957 5957 5957 5958 5957 5957 5958 5959 5959 5961 5963 5963 5964 5965
5891 5893 5895 5897 5899 5903 5907 5912 5916 5919 5923 5928 5932 5935 5938 5941 5944 5946 5948 5949 5950 5952 5953 5954 5955 5957 5958 5958 5958 5959 5959 5959 5959 5959 5959 5959 5961 5962 5963 5965 5966 5967 5966
5888 5890 5893 5896 5898 5900 5905 5910 5915 5918 5922 5926 5930 5934 5937 5940 5943 5946 5948 5950 5951 5953 5955 5956 5956 5958 5959 5961 5961 5960 5960 5960 5961 5961 5961 5962 5963 5965 5966 5967 5968 5969 5969
5883 5887 5890 5893 5895 5898 5901 5907 5913 5917 5920 5923 5927 5931 5935 5938 5941 5945 5948 5950 5952 5953 5954 5956 5957 5959 5961 5962 5963 5962 5961 5961 5962 5962 5963 5964 5965 5967 5968 5969 5970 5971 5971
5878 5883 5886 5889 5892 5895 5898 5903 5908 5912 5917 5921 5924 5928 5932 5935 5939 5942 5946 5948 5951 5953 5954 5956 5957 5959 5961 5963 5963 5964 5963 5963 5963 5963 5964 5965 5966 5968 5969 5970 5971 5972 5973
5872 5877 5881 5886 5889 5891 5894 5897 5903 5907 5912 5916 5920 5924 5929 5933 5936 5939 5944 5947 5950 5952 5954 5955 5957 5958 5960 5962 5963 5964 5964 5964 5964 5964 5964 5965 5967 5968 5970 5970 5972 5973 5974
5865 5873 5877 5881 5884 5886 5890 5894 5898 5902 5908 5913 5918 5922 5926 5930 5933 5937 5941 5944 5948 5951 5952 5954 5955 5957 5959 5960 5962 5963 5964 5964 5964 5964 5964 5965 5966 5968 5970 5971 5972 5973 5974
5868 5868 5873 5877 5879 5882 5886 5890 5893 5898 5904 5909 5913 5918 5921 5924 5929 5934 5938 5942 5945 5948 5950 5952 5954 5955 5957 5958 5960 5961 5962 5963 5964 5963 5964 5965 5966 5967 5969 5971 5972 5973 5975
5859 5863 5867 5870 5874 5878 5881 5886 5889 5893 5898 5903 5909 5913 5918 5922 5928 5932 5935 5939 5942 5945 5948 5950 5952 5953 5955 5956 5958 5959 5960 5962 5962 5963 5963 5964 5965 5966 5968 5970 5972 5974 5975
5851 5856 5861 5864 5870 5874 5878 5881 5884 5886 5890 5896 5903 5909 5914 5920 5925 5928 5932 5936 5939 5942 5944 5947 5949 5951 5953 5954 5955 5956 5958 5959 5960 5961 5962 5963 5964 5966 5967 5969 5972 5973 5974
5842 5848 5853 5856 5863 5868 5873 5876 5878 5882 5885 5891 5897 5905 5910 5914 5919 5923 5927 5931 5935 5938 5941 5943 5946 5948 5950 5951 5952 5954 5955 5957 5958 5959 5960 5961 5962 5964 5967 5969 5970 5971 5972
5827 5835 5840 5848 5855 5862 5868 5871 5874 5878 5881 5886 5892 5898 5903 5908 5913 5918 5922 5926 5930 5934 5937 5940 5942 5945 5947 5948 5950 5951 5952 5954 5956 5958 5958 5959 5961 5963 5965 5967 5969 5970 5970
5818 5823 5833 5842 5849 5857 5863 5866 5871 5874 5877 5883 5887 5892 5897 5902 5907 5912 5916 5921 5926 5928 5932 5935 5938 5941 5943 5945 5947 5948 5950 5952 5953 5955 5956 5957 5959 5961 5963 5965 5966 5967 5968
5803 5813 5825 5833 5842 5851 5856 5860 5864 5868 5873 5877 5882 5887 5891 5897 5901 5906 5911 5915 5919 5923 5927 5930 5933 5936 5939 5941 5943 5945 5946 5948 5950 5952 5953 5954 5956 5958 5960 5962 5963 5964 5964
5801 5808 5817 5825 5834 5841 5848 5854 5858 5864 5867 5873 5878 5882 5887 5891 5895 5900 5905 5909 5912 5917 5921 5923 5927 5931 5934 5936 5939 5940 5942 5943 5945 5947 5950 5951 5953 5955 5957 5959 5960 5961 5961
5789 5798 5806 5816 5825 5834 5841 5848 5854 5858 5863 5869 5874 5877 5879 5883 5888 5893 5897 5900 5904 5909 5912 5916 5921 5925 5927 5930 5934 5936 5937 5939 5941 5944 5945 5947 5949 5951 5953 5955 5956 5957 5957
5782 5791 5799 5808 5817 5826 5833 5839 5846 5852 5862 5864 5865 5870 5873 5877 5882 5885 5890 5894 5899 5902 5907 5910 5914 5918 5921 5925 5928 5931 5932 5933 5935 5938 5941 5944 5945 5947 5948 5950 5951 5952 5951
5773 5782 5790 5800 5809 5817 5823 5832 5838 5850 5850 5855 5859 5862 5867 5870 5873 5878 5883 5887 5892 5897 5901 5904 5907 5911 5915 5919 5922 5925 5927 5928 5930 5933 5936 5939 5941 5942 5943 5944 5945 5945 5945
5765 5771 5779 5788 5798 5807 5814 5824 5833 5836 5843 5848 5853 5857 5861 5863 5867 5870 5874 5879 5883 5888 5893 5897 5900 5904 5908 5912 5916 5919 5921 5923 5925 5928 5930 5933 5935 5936 5937 5938 5939 5938 5938
5756 5761 5767 5776 5786 5795 5805 5815 5819 5828 5835 5841 5844 5849 5854 5857 5861 5863 5866 5869 5874 5878 5883 5888 5892 5895 5899 5903 5908 5912 5915 5918 5921 5923 5924 5926 5928 5930 5931 5931 5931 5931 5930
5746 5753 5760 5767 5777 5784 5792 5800 5810 5819 5827 5832 5837 5842 5844 5850 5853 5854 5859 5863 5865 5870 5876 5880 5884 5888 5893 5897 5901 5904 5908 5911 5914 5915 5916 5919 5920 5921 5923 5923 5922 5922 5921
5739 5747 5754 5760 5767 5774 5783 5793 5803 5810 5817 5823 5828 5832 5837 5842 5845 5850 5853 5856 5862 5866 5869 5873 5877 5881 5886 5889 5893 5896 5900 5903 5904 5906 5909 5911 5912 5913 5913 5913 5913 5912 5911